Regional Weather Roundup
Issued by NWS Albany, NY

Home | Current Version | Previous Version | Graphics & Text | Print | Product List | Glossary Off
Versions: 1 2 3 4 5 6 7 8 9 10 11 12 13 14 15 16 17 18 19 20 21 22 23 24 25 26 27 28 29 30 31 32 33 34 35 36 37 38 39 40 41 42 43 44 45 46 47 48 49 50

807
ASUS41 KALY 261510
RWRALY

NEW YORK STATE HOURLY WEATHER ROUNDUP
NATIONAL WEATHER SERVICE ALBANY NY
1100 AM EDT TUE JUL 26 2016

NOTE: "FAIR" INDICATES FEW OR NO CLOUDS BELOW 12,000 FEET WITH NO
SIGNIFICANT WEATHER AND/OR NO OBSTRUCTIONS TO VISIBILITY.

NYZ032-033-038>043-046>054-057>066-NYZ062>081-082-084-261600-
EAST


CITY           SKY/WX    TMP DP  RH WIND       PRES   REMARKS
ALBANY         MOSUNNY   79  63  57 NW13      29.90R
GLENS FALLS    PTSUNNY   80  62  54 SE3       29.87R
POUGHKEEPSIE   SUNNY     84  68  58 W10       29.89S
NEWBURGH       MOSUNNY   81  54  39 NW12      29.93F
MONTGOMERY     SUNNY     82  68  62 W8        29.91F
WHITE PLAINS   MOSUNNY   82  69  64 NW10      29.91F
ISLIP          MOSUNNY   87  63  44 W13       29.89S
NEW YORK CITY  MOSUNNY   86  65  49 NW13      29.90S
CENTRAL PARK   SUNNY     83  67  58 VRB7      29.94S
$$

NYZ005>009-017-018-044>046-055-056-261600-
CENTRAL


CITY           SKY/WX    TMP DP  RH WIND       PRES   REMARKS
FULTON         PTSUNNY   77  65  66 W14       29.96R
SYRACUSE       PTSUNNY   76  65  68 W10       29.96R
ROME           PTSUNNY   74  66  76 NW10      29.95R
ELMIRA         MOSUNNY   79  59  50 NW14G20   29.99R
BINGHAMTON     MOSUNNY   73  62  68 NW12      30.00S
MONTICELLO     SUNNY     75  64  69 W15G24    29.98S
$$

NYZ026>034-041>043-087-261600-
NORTH


CITY           SKY/WX    TMP DP  RH WIND       PRES   REMARKS
WATERTOWN      SUNNY     78  62  57 SW9       29.92S
FORT DRUM      NOT AVBL
MASSENA        MOSUNNY   77  63  61 W12       29.88R
SARANAC LAKE   MOSUNNY   73  59  61 NW8G17    29.90S
PLATTSBURGH    CLOUDY    83  63  50 NW9       29.82S
$$

NYZ001>004-010>016-019>021-085-261600-
WEST


CITY           SKY/WX    TMP DP  RH WIND       PRES   REMARKS
NIAGARA FALLS  MOSUNNY   76  60  57 NW7       30.01S
BUFFALO        MOSUNNY   75  60  59 SW8       30.02S
DUNKIRK        SUNNY     73  61  65 W7        30.04S
JAMESTOWN      MOSUNNY   72  57  60 N6        30.07S
WELLSVILLE     MOSUNNY   75  59  57 VRB6      30.08R
ROCHESTER      MOSUNNY   76  63  64 NW9       30.00S
PENN YAN       SUNNY     75  61  61 W7        30.01R
$$

             KEY
       WCI = WIND CHILL INDEX
       VSB = VISIBILITY
       HX  = HEAT INDEX
$$




USA.gov is the U.S. government's official web portal to all federal, state and local government web resources and services.